Wisdom Guild ホーム

ショップ情報

登録データ

4,980 件

検索フィルター

カード名

値段

円 ~

在庫

枚 ~

MTG専門店しかのつの登録済みカード一覧

カード名価格セット言語在庫状態最終更新最終チェック
ベナリアの軍司令Benalish Marshal650DOMENG1 枚売り場18/11/18 20:2418/11/18 20:24
発見+発散Discovery+Dispersal30GRNJPN5 枚売り場18/11/15 12:3918/11/15 12:39
発見+発散Discovery+Dispersal30GRNENG2 枚売り場18/11/15 12:3918/11/15 12:39
パルン、ニヴ=ミゼットNiv-Mizzet, Parun300GRNENG1 枚売り場18/11/15 12:0518/11/15 12:05
敬慕されるロクソドンVenerated Loxodon350GRNENG2 枚売り場18/11/15 12:0218/11/15 12:02
Baron Von Count70USTENG9 枚売り場18/11/14 23:4018/11/14 23:51
狂信的扇動者Fanatical Firebrand20RIXJPN8 枚売り場18/11/14 23:4018/11/14 23:50
黄昏の預言者Twilight Prophet680RIXJPN2 枚売り場18/11/14 23:4018/11/14 23:50
剣呑な交渉Sword-Point Diplomacy30XLNJPN4 枚売り場18/11/14 23:4018/11/14 23:50
呪文詐欺Spell Swindle50XLNJPN3 枚売り場18/11/14 23:4018/11/14 23:50
カード名価格セット言語在庫状態リンク最終更新最終チェック
最初の噴火The First Eruption20DOMENG1 枚売り場18/11/14 23:4018/11/14 23:51
ゴブリンの鎖回しGoblin Chainwhirler630DOMENG5 枚売り場18/11/14 23:4018/11/14 23:51
ベルゼンロック典礼Rite of Belzenlok30DOMENG1 枚売り場18/11/14 23:4018/11/14 23:51
飢饉の具現、トルガールTorgaar, Famine Incarnate50DOMENG2 枚売り場18/11/14 23:4018/11/14 23:51
リッチの騎士、ジョス・ヴェスJosu Vess, Lich Knight80DOMENG1 枚売り場18/11/14 23:4018/11/14 23:51
センギアの純血、カザロフKazarov, Sengir Pureblood20DOMENG1 枚売り場18/11/14 23:4018/11/14 23:51
戦慄の影Dread Shade100DOMENG1 枚売り場18/11/14 23:4018/11/14 23:51
ゴルガリの拾売人Golgari Findbroker30GRNENG2 枚売り場18/11/14 23:4018/11/14 23:51
裁きの一撃Justice Strike20GRNENG3 枚売り場18/11/14 23:4018/11/14 23:51
秘宝探究者、ヴラスカVraska, Relic Seeker2,280XLNJPN4 枚売り場18/11/14 23:4018/11/14 23:50
カード名価格セット言語在庫状態リンク最終更新最終チェック
ゴブリンのクレーター掘りGoblin Cratermaker70GRNENG4 枚売り場18/11/14 23:4018/11/14 23:51
弾けるドレイクCrackling Drake40GRNENG1 枚売り場18/11/14 23:4018/11/14 23:51
狡猾な漂流者、ジェイスJace, Cunning Castaway280XLNJPN2 枚売り場18/11/14 23:4018/11/14 23:50
軍勢の切先、タージクTajic, Legion's Edge50GRNJPN4 枚売り場18/11/14 23:4018/11/14 23:51
苦悩火Banefire550MM2JPN1 枚売り場18/11/14 23:4018/11/14 23:50
湿った墓Watery Grave880GRNENG4 枚売り場18/11/14 23:4018/11/14 23:51
グリセルブランドGriselbrand1,180MM3JPN2 枚売り場18/11/14 23:4018/11/14 23:50
這い寄る恐怖Creeping Chill20GRNENG2 枚売り場18/11/14 23:4018/11/14 23:51
疫病造り師Plaguecrafter50GRNENG2 枚売り場18/11/14 23:4018/11/14 23:51
Kindslaver130USTENG1 枚売り場18/11/14 23:4018/11/14 23:51
カード名価格セット言語在庫状態リンク最終更新最終チェック
本質の散乱Essence Scatter10M19JPN2 枚売り場18/11/14 23:4018/11/14 23:50
寺院の庭Temple Garden500GRNENG4 枚売り場18/11/14 23:4018/11/14 23:51
草むした墓Overgrown Tomb750GRNENG2 枚売り場18/11/14 23:4018/11/14 23:51
番狼Watchwolf10JPN2 枚売り場18/11/14 23:4018/11/14 23:51
蒸気打ちの親分Steamflogger Boss50USTENG4 枚売り場18/11/14 23:4018/11/14 23:51
歪める嘆きWarping Wail50OGWJPN14 枚売り場18/11/14 23:4018/11/14 23:50
無謀な奇襲隊Reckless Bushwhacker30OGWJPN7 枚売り場18/11/14 23:4018/11/14 23:50
反射魔道士Reflector Mage60OGWJPN6 枚売り場18/11/14 23:4018/11/14 23:50
ナルコメーバNarcomoeba50GRNJPN8 枚売り場18/11/14 23:4018/11/14 23:51
記憶の裏切りMnemonic Betrayal100GRNENG1 枚売り場18/11/14 23:4018/11/14 23:51
カード名価格セット言語在庫状態リンク最終更新最終チェック
Lobe Lobber50USTENG1 枚売り場18/11/14 23:4018/11/14 23:51
勇敢な考古学者Daring Archaeologist20DOMENG1 枚売り場18/11/14 23:4018/11/14 23:51
議事会の裁きConclave Tribunal40GRNENG4 枚売り場18/11/14 23:4018/11/14 23:51
薬術師の眼識Chemister's Insight90GRNENG7 枚売り場18/11/14 23:4018/11/14 23:51
彩色の灯籠Chromatic Lantern40GRNJPN13 枚売り場18/11/14 23:4018/11/14 23:51
Hydradoodle130USTENG1 枚売り場18/11/14 23:4018/11/14 23:51
マーフォークの枝渡りMerfolk Branchwalker220XLNJPN8 枚売り場18/11/14 23:4018/11/14 23:50
帆凧の掠め盗りKitesail Freebooter150XLNJPN11 枚売り場18/11/14 23:4018/11/14 23:50
大草原の川Prairie Stream100BFZJPN3 枚売り場18/11/14 23:4018/11/14 23:50
戦導者オレリアAurelia, the Warleader450JPN1 枚売り場18/11/14 23:4018/11/14 23:51

免責事項

本システムは、各カードショップ様の了承のもと自動的にシングルカード価格データを収集・解析し提供しております。 実際の販売価格や在庫は変動しますので、この価格で販売されることを保証するものではありません。 また、カードの状態や販売方法などは各カードショップ様によって異なる他、データは自動解析されたものですので、誤記等が存在する可能性もあります。 購入時に各ショップ様のウェブサイトにてよく御確認ください。
特記無き価格情報は、税込価格です。ショップでの表示が税抜のみの場合は、独自に消費税相当額を加算しています。
本システムを利用したことによるいかなる損害も保証致しかねますので、御認識の程宜しく御願い致します。
© 1999-2018 Wisdom Guild, OWLAIR networks, All rights reserved.
管理者連絡先 | 権利表記 (実行時間:0.24 秒)